Theta_e
349 349 349 349 348 348 347 346 345 346 343 338 335 335 336 337 339 340 341 340 336 336 340 341 340 340 340 340 341 342 344 344 343 343 344 344 344 345 344 342 342 343 343 345 346 345 345 344 343 343 343 342 342 342 342 341 342 343 344 344 343 344 343 342 342 342 342 341 341 339 341 343 342 341 341 341 341 340 340 340 340 340 340 340 337
348 348 348 348 348 348 347 346 346 346 345 342 339 337 336 336 338 338 340 341 338 336 339 340 341 341 339 339 340 342 344 343 342 343 344 343 343 342 342 342 342 342 343 345 347 347 346 344 342 343 343 343 342 342 341 341 342 342 343 345 344 344 344 342 342 342 342 342 340 338 338 340 341 341 340 340 340 340 340 340 339 339 339 339 337
347 347 348 348 348 348 347 347 346 345 345 344 342 340 339 337 336 338 339 341 339 338 339 339 340 341 340 339 340 342 344 343 342 344 345 344 341 340 340 342 343 342 342 344 347 347 347 345 343 343 343 343 343 342 341 341 342 342 342 345 345 345 344 343 343 342 342 342 339 336 337 339 339 340 340 340 340 340 340 339 339 339 339 338 338
346 346 347 347 347 348 347 347 346 345 345 345 345 343 341 339 336 337 339 341 340 339 340 339 340 341 340 340 341 343 344 343 343 346 347 345 343 342 342 343 343 342 342 344 345 346 347 345 343 343 343 344 343 342 342 342 343 343 343 345 346 345 344 343 343 342 342 342 340 337 338 338 339 340 340 340 339 340 340 340 339 339 339 339 339
346 346 346 346 346 347 347 346 345 346 346 345 345 344 342 341 338 336 338 340 341 340 341 340 341 342 339 340 343 345 345 343 344 346 347 347 346 346 345 344 343 343 343 343 344 346 346 344 343 343 344 344 343 342 342 342 343 343 344 345 346 345 344 343 343 342 342 343 341 340 340 340 341 341 340 339 339 339 339 339 339 339 339 339 339
347 346 346 346 346 346 346 346 345 345 346 345 345 345 344 342 339 337 337 340 341 341 341 341 343 342 340 340 343 343 343 342 343 345 346 347 347 347 347 345 344 343 343 343 343 345 346 345 343 343 345 345 343 342 341 341 343 344 344 346 346 344 344 344 343 342 342 342 341 341 341 342 342 342 341 340 338 338 338 339 339 338 338 338 339
348 347 346 346 346 346 346 346 346 346 346 345 345 346 345 343 341 337 336 338 340 341 342 342 343 343 341 341 341 339 338 338 339 343 346 346 347 348 348 347 345 344 343 342 344 345 345 345 344 343 344 344 343 342 341 341 342 344 344 345 346 344 343 344 343 342 342 341 340 340 341 342 342 342 342 341 340 338 338 338 338 338 338 338 338
349 348 347 347 346 346 346 346 346 346 346 346 345 345 345 344 342 339 335 337 339 340 341 342 342 341 341 341 340 338 335 335 337 341 346 347 347 348 347 347 346 344 343 342 343 344 344 345 344 343 343 344 344 343 342 341 341 343 344 345 346 345 344 344 344 343 341 341 340 340 341 342 342 342 341 341 340 339 338 338 338 338 337 338 338
349 349 348 347 346 346 346 346 346 346 346 346 346 346 345 345 344 341 337 335 337 339 339 340 341 340 339 339 338 336 335 336 337 340 345 347 347 347 346 346 346 344 343 342 343 343 344 344 343 342 344 345 345 344 344 343 341 342 343 344 345 345 345 345 345 343 341 341 342 341 342 342 342 341 340 339 339 339 338 338 339 339 337 337 339
349 349 349 348 347 347 346 346 347 346 346 346 346 346 346 345 344 343 339 335 335 337 337 338 340 339 338 337 335 334 333 335 337 340 344 346 347 346 345 344 344 343 342 342 343 343 344 344 343 342 344 345 344 343 344 344 344 344 343 343 344 344 345 345 345 343 341 342 343 342 342 342 341 340 339 339 340 340 340 340 341 340 338 337 338
349 349 349 349 348 347 346 346 346 346 347 347 346 346 346 345 345 343 341 337 335 336 336 337 338 339 338 337 334 333 333 333 334 338 343 346 346 345 344 344 342 342 342 342 342 342 343 344 344 343 343 344 344 344 344 345 346 345 345 344 343 343 344 344 343 343 342 342 342 341 341 341 341 340 339 340 341 341 341 340 340 340 339 338 338
349 349 349 349 349 347 346 346 346 346 346 347 347 346 346 345 345 344 342 340 337 335 336 336 337 338 338 337 335 333 333 332 332 334 339 345 345 344 344 343 342 340 341 341 342 342 342 342 343 343 344 344 345 345 345 345 346 346 345 344 343 343 343 342 342 342 342 342 341 340 341 341 341 340 340 340 341 341 340 339 340 340 340 340 339
349 349 349 349 349 348 347 346 346 346 346 346 347 346 346 346 344 344 343 342 340 337 336 336 337 337 337 337 335 334 333 333 332 332 335 342 344 344 344 343 341 339 339 340 341 342 341 341 342 343 344 344 344 345 345 346 346 346 346 346 344 343 342 342 342 341 341 341 340 340 340 341 341 340 341 341 341 341 339 339 340 340 341 341 341
349 349 349 349 350 349 348 347 346 346 346 346 346 346 346 345 345 344 343 343 342 339 336 336 337 338 338 337 335 334 333 332 333 332 332 338 342 343 343 343 341 338 338 339 340 341 341 341 342 342 343 344 344 344 345 347 348 347 347 346 345 344 343 343 342 341 341 341 340 341 342 341 340 340 341 340 340 341 340 340 341 341 341 342 341
348 349 349 349 350 349 348 348 347 347 346 346 346 346 346 345 345 345 343 343 343 341 338 336 336 338 339 338 336 334 333 332 333 332 332 334 338 341 341 341 340 337 337 337 338 340 340 341 341 341 342 343 343 344 344 346 347 346 345 345 345 345 344 343 342 341 341 341 340 341 342 342 341 340 340 340 340 341 341 341 341 341 342 342 341
348 349 349 349 349 349 349 348 347 347 346 346 346 346 346 345 345 344 344 343 343 343 341 339 337 337 338 340 337 334 333 333 332 332 332 332 335 338 339 340 340 338 336 335 335 337 339 341 341 341 341 342 342 344 344 344 346 346 346 344 344 345 345 345 344 342 340 341 341 341 341 342 341 340 339 340 340 341 342 341 341 342 343 343 343
349 349 349 349 349 349 349 348 348 347 347 347 346 346 346 346 345 345 344 344 344 343 343 341 339 336 336 339 339 336 333 332 331 331 331 332 333 335 337 338 339 338 336 335 334 334 335 338 340 341 342 341 341 342 343 343 343 345 346 345 345 345 346 347 346 344 342 340 340 340 340 341 341 340 340 340 342 343 344 343 343 343 345 346 346
350 350 349 349 349 349 349 349 348 348 348 347 347 347 346 346 345 345 345 345 344 344 343 343 342 339 337 337 338 337 334 332 331 330 330 331 332 333 334 336 337 337 335 335 335 333 333 334 337 340 341 341 341 341 341 342 342 342 343 345 345 345 345 346 346 345 345 343 342 340 339 339 340 339 339 341 343 344 345 345 346 346 347 347 347
350 350 349 349 349 349 349 349 348 348 348 348 347 347 346 346 346 346 346 346 345 345 344 344 343 342 340 337 336 335 334 333 332 331 330 330 331 331 331 332 334 335 335 335 334 334 333 332 332 335 338 340 341 341 341 341 340 340 340 342 343 344 344 345 346 345 345 345 344 343 340 337 337 338 339 341 344 345 345 346 346 346 347 347 347
351 350 350 350 349 349 349 348 349 348 348 347 347 346 346 346 346 345 346 346 346 345 345 344 344 343 343 340 337 336 335 333 332 331 330 329 329 330 329 329 331 333 334 334 333 333 333 331 329 330 332 334 337 338 340 340 340 340 340 340 341 342 342 343 345 345 345 345 344 344 342 337 335 337 339 341 344 345 345 345 345 345 346 346 346
351 350 350 350 349 349 349 349 348 348 348 347 346 347 346 346 346 346 346 346 346 346 345 344 344 344 344 343 341 338 336 334 333 332 331 329 329 329 328 329 330 332 333 333 332 332 331 331 329 327 327 327 329 331 334 336 338 339 340 339 339 340 340 341 342 344 344 344 344 344 343 340 336 336 339 341 344 345 345 345 345 345 345 346 345
350 350 350 350 350 350 349 348 348 347 347 346 346 346 346 346 346 346 346 346 346 346 346 345 345 345 345 344 343 342 339 337 334 332 331 330 330 329 329 329 329 330 332 332 331 331 330 330 329 327 326 326 326 326 328 330 333 335 337 339 339 339 339 339 340 341 342 343 343 343 343 342 340 337 338 341 342 343 345 344 344 344 344 345 344
345 348 350 350 350 350 350 349 348 348 347 347 347 346 345 346 346 346 346 346 346 347 346 346 345 345 345 345 345 344 343 341 338 334 331 330 330 330 329 329 329 329 330 331 331 331 331 330 329 328 327 326 325 326 326 327 329 331 334 336 337 338 339 339 339 339 340 341 342 342 342 342 342 341 340 340 340 340 342 342 343 343 342 342 343
342 344 347 349 349 350 349 349 349 348 348 347 347 347 346 346 346 346 346 346 346 346 346 346 345 345 346 345 345 345 344 344 342 339 334 330 330 330 330 330 329 329 329 329 330 331 332 332 331 330 328 327 326 326 326 326 327 329 330 332 335 337 338 338 338 339 339 339 340 340 340 341 341 342 342 342 341 340 340 340 341 341 342 343 345
339 341 343 346 348 349 349 349 348 347 348 347 347 347 347 346 345 346 346 346 346 346 346 346 346 346 345 346 346 345 345 345 345 343 339 335 332 330 330 330 329 329 329 328 329 331 332 332 331 331 330 328 327 326 326 325 325 327 328 330 332 334 336 338 338 338 339 339 339 339 339 340 340 341 341 341 341 341 341 341 341 342 343 345 345
334 337 340 342 343 345 347 348 348 347 347 347 347 347 347 347 346 346 346 346 346 346 346 346 346 346 346 346 346 346 346 346 346 346 344 342 338 335 332 331 329 329 329 328 329 329 330 331 331 331 331 330 328 327 326 326 325 325 326 328 331 332 333 335 337 338 338 338 338 338 338 339 339 339 340 339 340 341 341 341 341 342 343 343 342
327 332 336 338 340 342 344 346 346 348 348 347 347 347 348 348 347 346 346 345 346 345 346 346 345 346 346 346 346 346 346 346 346 347 346 345 344 342 340 336 333 331 329 328 328 328 329 330 330 330 330 330 329 328 327 327 325 325 324 325 328 330 332 333 333 336 337 338 338 337 337 338 338 338 338 339 339 339 340 340 340 340 340 340 339
323 325 328 331 334 337 341 344 345 347 348 348 348 347 348 348 347 347 346 346 346 345 345 346 346 346 346 346 346 346 346 347 347 347 347 347 347 347 346 344 341 337 333 330 329 328 328 328 328 329 329 329 329 328 328 327 326 325 325 324 325 328 330 332 332 332 334 336 337 337 337 337 337 337 337 338 338 338 338 339 338 338 338 337 336
323 323 323 324 325 328 333 338 343 346 346 347 349 349 349 348 348 348 347 347 347 346 346 346 346 346 346 347 347 347 347 347 347 348 348 348 349 348 348 348 346 344 340 335 332 330 328 328 328 328 327 328 328 327 327 327 326 325 325 325 325 326 327 330 332 332 331 332 334 336 337 336 336 336 336 337 337 337 337 337 337 338 337 336 336
322 322 322 322 322 322 324 329 335 342 345 346 347 348 349 350 349 349 348 348 348 347 347 347 347 347 347 347 348 347 347 348 348 348 349 349 350 350 349 349 349 348 347 344 341 337 334 331 330 329 328 328 327 327 327 326 326 326 325 326 326 326 327 329 331 332 331 330 331 332 334 335 335 336 336 336 336 337 336 336 336 336 337 336 336
321 322 322 322 321 321 320 322 326 331 337 343 346 347 348 350 350 350 349 349 349 349 348 349 348 348 348 348 348 348 348 349 349 349 350 349 350 350 350 351 350 350 350 349 348 346 343 339 336 334 332 331 329 328 328 327 326 326 326 326 326 327 328 329 330 332 332 331 330 331 332 333 334 334 334 334 335 336 336 336 336 335 336 336 335
320 321 321 322 321 321 320 320 322 324 327 332 338 343 347 348 350 352 351 350 350 350 349 349 350 349 349 350 350 349 349 350 350 350 350 351 351 351 351 351 351 351 352 351 351 350 349 347 346 343 340 337 334 331 330 330 329 328 328 328 328 328 329 330 331 332 333 333 332 331 331 332 333 334 334 334 334 335 335 335 335 335 335 335 334
320 320 320 321 321 321 320 320 321 324 325 325 327 334 340 344 347 350 352 351 350 351 351 351 350 350 350 351 350 350 349 350 351 351 351 351 351 352 352 352 352 352 352 352 352 352 352 351 350 349 347 344 339 335 333 332 332 331 331 331 330 330 331 331 332 332 333 333 333 332 331 331 332 333 333 334 334 334 334 334 333 334 334 333 333
319 319 319 320 320 321 321 320 320 322 325 325 324 327 333 337 342 347 351 352 352 352 352 352 352 351 352 352 351 350 349 350 352 352 351 352 352 352 352 353 353 353 353 353 353 353 353 353 352 352 351 349 344 338 336 335 334 333 334 333 333 333 333 333 333 334 334 334 335 334 333 331 331 331 332 333 333 333 333 334 333 333 333 332 332
319 319 319 319 320 320 321 321 321 322 323 324 324 324 326 330 336 344 349 349 351 353 353 353 353 352 352 352 352 352 352 352 352 352 352 352 352 352 352 352 353 354 353 353 353 353 354 354 354 354 353 352 348 342 338 336 335 335 335 335 335 335 335 335 335 335 335 335 336 336 335 333 331 331 331 331 332 332 332 333 333 332 332 332 331
319 319 319 319 319 320 320 321 321 321 322 323 324 323 323 324 330 339 345 346 348 351 352 352 353 353 353 353 352 353 352 352 353 353 353 353 352 353 353 352 353 353 354 354 354 354 354 354 354 354 355 355 351 346 342 338 335 336 336 336 337 337 337 337 337 336 336 336 337 337 337 336 334 333 332 332 331 332 332 333 333 332 332 332 331
318 318 319 319 319 319 320 320 321 321 322 324 324 324 325 326 327 331 339 344 346 348 349 351 352 352 352 352 353 353 353 353 354 354 354 353 353 353 353 353 353 353 354 355 355 355 354 353 353 354 355 357 354 349 347 342 338 337 337 338 338 337 338 338 338 338 338 338 338 338 338 338 336 335 335 334 334 334 334 334 334 334 334 333 332
318 318 318 319 319 319 320 320 321 322 323 324 325 326 327 329 328 327 330 338 343 346 348 349 350 351 351 351 352 352 352 353 354 354 354 354 354 354 354 354 354 353 354 355 356 356 355 354 354 353 354 357 357 354 352 348 343 341 340 340 339 338 339 340 339 339 339 339 339 339 339 340 339 337 336 336 337 337 337 337 336 337 336 335 333
315 317 318 318 319 319 319 320 321 322 323 324 324 325 326 328 329 329 328 330 335 340 345 347 349 351 352 352 352 352 352 353 354 354 355 355 355 355 355 355 355 355 355 356 357 357 356 356 356 355 353 355 357 358 357 352 347 344 343 342 341 340 340 340 340 340 340 340 341 341 341 341 339 338 338 337 338 339 339 338 338 339 339 336 333
312 313 315 317 318 319 319 320 320 321 322 323 323 323 324 326 327 326 326 328 330 333 339 343 346 349 352 354 354 354 353 353 353 353 354 356 356 356 357 357 357 356 357 357 358 357 357 357 356 356 355 354 355 359 360 357 352 347 344 344 343 343 341 340 341 341 341 342 342 342 342 341 340 339 339 339 339 339 339 339 340 340 339 336 334
311 311 311 313 316 318 319 319 320 321 322 324 324 323 323 325 325 322 322 325 328 329 332 337 341 345 348 351 354 356 356 355 354 354 353 354 355 356 356 356 356 357 357 358 358 358 357 357 356 356 356 354 354 357 360 361 357 352 347 346 345 343 341 341 341 342 342 343 343 343 342 341 340 340 339 340 340 340 340 341 341 340 338 336 335
312 311 311 311 313 316 318 319 319 320 321 323 324 324 325 326 327 325 322 323 326 327 328 331 335 338 341 346 350 355 357 356 355 356 356 355 355 354 354 355 355 356 357 357 357 357 357 357 356 355 355 354 354 355 358 361 361 357 353 349 347 343 341 342 343 343 343 343 343 342 341 340 339 340 340 341 341 342 343 343 341 339 338 337 338
311 311 311 311 311 313 315 317 318 319 320 321 323 324 325 326 328 327 325 324 325 326 326 328 331 333 336 339 343 348 354 355 356 358 358 357 357 356 355 355 355 355 356 355 356 356 356 357 356 355 355 355 354 355 357 360 361 360 358 354 349 345 343 344 345 344 343 343 342 342 341 340 340 341 341 341 342 344 345 344 342 342 342 342 342
310 311 311 310 310 311 312 315 317 318 319 321 321 323 324 326 327 328 328 326 324 323 324 326 328 330 333 335 337 344 351 354 355 358 359 359 358 357 356 356 356 355 355 355 355 356 356 356 356 355 355 355 355 355 357 360 361 361 360 358 353 349 346 346 346 345 344 344 343 342 341 342 342 342 343 343 343 345 346 344 345 346 346 345 346
309 310 310 309 310 310 310 312 315 317 318 320 320 321 323 324 326 328 329 328 326 322 322 325 326 328 331 333 336 344 351 353 353 355 358 359 360 359 358 357 356 356 356 355 355 355 355 356 356 355 355 355 355 356 358 360 361 362 361 360 357 354 351 349 347 346 346 345 345 344 343 343 343 344 345 346 346 347 346 345 346 348 348 348 348
308 308 309 309 309 310 310 311 312 316 318 319 320 320 321 322 325 327 329 329 328 325 323 324 326 328 331 332 335 339 346 350 351 354 356 358 359 360 359 358 357 356 356 356 355 356 356 356 355 356 355 356 356 357 358 360 361 361 361 361 360 358 356 353 351 349 348 348 348 348 347 347 347 347 348 348 348 347 347 347 348 349 350 350 350
308 308 308 308 308 309 310 310 311 313 316 318 319 320 321 321 323 325 328 330 330 328 325 325 326 328 329 331 333 334 337 341 345 351 355 357 357 358 359 359 357 354 353 356 356 356 356 356 356 356 356 356 357 358 359 360 360 360 361 361 361 359 358 357 355 353 351 350 350 350 350 350 350 350 350 350 349 349 349 349 349 350 351 351 351
308 308 308 308 308 309 309 310 310 311 314 317 318 319 320 321 321 323 326 329 330 330 327 325 327 328 329 331 333 334 334 335 337 342 350 355 357 357 357 356 354 352 351 353 356 357 356 356 356 355 356 356 357 357 358 359 359 360 360 360 361 360 359 358 357 355 354 352 351 351 351 352 352 352 351 350 350 350 349 349 349 349 349 350 351
308 308 308 308 308 309 309 309 310 310 312 316 318 318 319 321 321 321 324 328 331 331 330 327 327 328 329 331 334 335 335 336 336 336 341 350 356 357 354 349 346 348 351 353 356 357 357 355 355 355 355 355 355 354 355 357 358 358 359 359 359 360 360 359 359 358 356 355 353 353 352 353 353 353 352 350 350 349 349 349 348 349 349 349 350
308 308 308 308 308 308 309 309 310 310 312 316 317 318 319 320 321 320 321 325 330 332 331 329 328 328 328 331 336 337 336 337 339 338 337 343 352 357 358 354 350 350 354 356 357 357 357 356 355 355 354 354 353 352 353 354 356 357 358 358 359 359 360 359 359 358 357 356 355 354 353 353 353 353 353 352 351 350 350 349 348 348 348 348 348
307 307 307 307 307 308 309 310 310 311 313 316 317 317 319 320 321 320 320 323 328 331 332 331 329 329 330 331 335 337 337 337 339 340 340 341 347 355 360 361 360 358 359 360 361 360 359 358 357 357 356 355 355 355 355 355 355 357 358 358 359 359 360 359 359 358 357 356 356 355 354 354 354 354 353 353 352 352 351 350 349 349 349 349 348
Wind_Speed
36 36 36 34 33 31 29 27 25 23 22 25 28 28 27 27 26 25 24 23 24 25 25 24 24 23 23 23 21 18 17 15 13 12 10 8 7 5 4 4 5 5 5 5 5 4 4 4 5 5 6 6 6 7 7 8 9 10 10 10 9 6 4 3 2 1 2 3 5 5 3 2 2 3 4 4 4 4 4 6 7 7 8 9 9
34 35 37 36 35 34 32 30 28 26 24 25 27 27 27 27 27 26 25 25 25 26 26 26 25 25 25 24 21 19 17 16 13 11 9 8 7 6 5 6 6 5 5 5 5 5 4 4 5 5 6 6 6 7 8 8 8 9 10 11 9 7 5 4 3 2 3 3 5 5 2 2 3 4 4 4 4 4 5 7 7 7 8 8 9
33 35 37 38 38 37 35 33 30 28 25 24 25 26 27 28 28 27 26 26 26 26 27 26 25 24 24 23 20 19 17 15 12 9 8 8 7 7 7 7 6 5 6 6 5 4 4 4 4 5 6 6 6 7 7 7 7 8 10 10 10 8 6 5 3 3 2 3 6 5 2 2 3 4 4 4 4 5 6 7 7 7 7 7 8
33 34 37 38 39 39 38 36 33 30 28 26 25 26 27 28 29 28 27 27 26 26 27 26 24 24 23 22 20 18 17 15 13 11 10 9 8 8 8 7 7 6 6 6 5 4 4 5 5 5 5 5 6 7 7 7 7 9 10 10 9 8 7 5 3 2 1 2 6 6 4 3 5 5 4 4 5 6 6 6 6 6 6 6 5
34 34 36 38 40 40 40 38 36 33 31 29 27 26 27 28 29 29 28 28 27 27 27 26 24 25 24 23 21 20 20 18 17 15 14 12 11 9 7 7 7 7 7 7 6 4 5 6 6 6 5 5 5 6 7 8 8 9 10 10 9 8 7 6 4 2 1 1 5 5 5 5 7 8 6 4 5 6 7 7 7 6 6 6 5
34 35 35 37 39 40 41 39 38 36 33 31 29 26 25 26 28 29 29 29 29 27 27 26 25 25 25 24 24 23 23 22 20 18 16 14 11 9 7 7 7 7 7 7 6 6 6 6 6 6 5 5 5 6 7 8 9 10 10 9 9 9 9 7 5 3 2 2 2 2 3 5 7 9 8 7 6 6 7 8 8 7 7 6 5
32 34 34 36 38 40 42 41 39 37 34 31 30 28 26 26 27 28 30 30 30 29 28 27 26 26 25 24 24 24 22 22 20 18 16 13 11 10 9 8 7 7 7 7 7 7 7 6 6 6 6 5 5 6 6 7 8 10 10 10 10 11 10 8 6 4 3 3 2 2 2 4 6 8 9 9 8 5 6 8 9 9 8 7 6
32 34 35 36 38 40 41 42 40 38 35 33 33 31 29 27 27 27 29 31 31 30 29 28 27 26 25 25 24 23 21 20 19 18 16 13 12 11 10 9 9 8 9 8 8 8 7 7 7 6 6 6 6 6 6 6 8 10 11 11 11 12 12 10 8 6 5 4 3 4 4 4 5 6 7 8 9 7 8 9 11 11 8 7 6
34 35 37 38 39 41 41 42 41 39 37 36 34 33 31 30 28 27 29 31 32 32 31 30 28 27 25 25 25 23 22 20 19 18 16 15 14 13 11 10 10 10 10 10 10 9 8 8 8 7 7 6 6 6 7 7 8 9 10 11 11 12 12 11 10 9 7 5 4 5 5 4 4 5 5 6 7 7 9 11 12 13 9 6 6
38 36 38 40 40 41 41 41 41 40 39 38 36 34 33 32 31 29 28 30 32 33 32 31 29 28 26 26 25 24 23 22 20 19 18 17 15 14 13 11 11 12 12 12 11 10 10 9 8 7 7 6 6 6 7 7 7 8 9 10 11 11 11 11 10 10 9 7 5 5 5 4 4 4 5 6 6 7 9 10 11 13 10 8 7
39 38 38 39 40 40 41 42 42 42 40 39 39 37 36 35 33 31 29 29 32 33 33 32 30 30 28 27 26 25 24 23 22 21 20 19 18 16 14 13 12 13 13 13 12 12 11 11 10 8 8 7 7 7 7 7 7 7 8 9 10 10 10 10 10 11 10 8 6 6 5 4 4 4 4 5 5 6 8 8 9 10 10 8 8
38 39 39 38 39 39 40 42 42 42 42 42 41 40 38 37 35 33 31 29 31 33 33 33 31 31 29 28 26 25 25 24 23 22 21 21 20 18 16 15 14 14 15 14 14 13 13 12 11 10 9 8 8 8 8 7 7 7 8 8 9 10 10 10 10 11 11 9 7 6 5 4 4 3 3 4 5 6 7 7 8 9 10 9 9
38 39 40 40 40 41 41 42 43 43 44 43 42 41 40 39 38 36 33 31 30 31 33 33 32 31 30 29 27 26 25 24 23 22 22 22 21 20 19 18 16 16 16 16 15 14 14 13 12 11 10 9 8 8 8 8 8 8 8 8 9 10 10 10 10 10 10 9 8 7 6 6 5 3 4 5 6 7 7 6 7 9 10 11 11
39 39 40 42 42 42 43 43 44 45 45 44 44 43 42 41 40 38 35 32 31 31 32 33 32 31 31 30 28 27 26 25 24 23 22 22 22 22 21 19 18 17 16 15 15 14 14 13 13 12 11 10 10 9 9 9 9 9 8 8 8 9 10 10 10 10 10 10 9 7 7 7 7 5 5 6 8 8 7 6 7 9 10 11 11
39 40 41 42 43 43 43 44 45 46 46 45 45 44 44 43 41 40 38 35 33 32 31 32 32 31 31 31 30 28 26 25 24 24 23 23 22 22 22 20 19 17 16 15 14 14 14 14 13 13 12 12 11 10 10 10 10 10 9 9 8 7 8 8 8 9 10 10 10 9 8 8 7 7 7 7 8 9 8 7 7 8 10 12 11
38 40 42 43 43 43 44 44 45 46 46 46 46 46 45 44 43 41 39 37 35 33 32 31 31 31 31 31 31 30 28 26 25 24 24 24 23 22 22 21 19 17 16 15 14 14 14 14 14 13 13 13 12 12 11 10 10 10 10 10 8 8 8 7 7 7 9 10 11 11 11 9 9 9 9 8 8 9 8 7 6 7 10 12 13
39 40 42 43 43 44 45 46 46 47 47 47 47 47 46 45 44 42 40 39 37 35 33 31 31 31 31 31 31 31 30 27 26 25 24 24 24 23 22 22 20 18 16 15 14 14 14 14 14 14 13 13 13 12 12 11 11 11 11 11 10 9 9 8 7 7 8 9 11 12 12 11 10 10 10 9 8 8 6 5 6 6 8 12 14
39 40 40 41 42 44 45 46 47 48 48 48 48 47 47 45 45 43 41 40 39 37 35 33 32 32 31 31 31 31 30 29 27 25 24 25 26 25 23 23 21 19 18 17 15 14 13 13 14 13 13 13 13 12 12 12 12 11 12 12 11 11 11 10 9 9 8 9 10 11 12 12 12 11 10 9 9 9 7 5 6 7 9 11 12
35 37 39 40 42 43 45 46 47 48 48 48 47 47 47 47 46 44 42 40 38 37 36 35 34 32 31 31 31 31 31 30 28 27 26 26 26 26 25 24 23 21 20 19 18 16 14 13 13 12 13 13 13 13 13 13 13 12 12 12 12 12 12 11 11 10 10 10 10 10 11 11 12 12 11 10 10 10 9 8 8 9 10 12 13
32 34 37 39 41 43 44 45 46 47 47 47 47 47 48 47 47 46 44 42 40 39 38 37 35 34 32 32 31 31 31 31 30 29 29 28 27 27 26 25 24 23 22 21 20 19 17 15 13 12 12 12 12 13 13 13 13 13 12 12 12 12 13 12 11 11 11 11 10 10 9 10 12 12 12 12 12 12 12 11 11 12 12 13 14
23 28 31 33 35 37 39 41 42 43 45 46 46 47 47 47 47 46 45 44 43 41 40 39 37 35 34 33 32 32 31 31 31 31 31 30 28 28 27 26 25 24 23 23 22 21 20 17 16 14 13 13 12 12 13 14 14 14 13 13 12 12 12 12 11 11 11 11 11 10 9 9 11 13 14 14 14 14 14 14 14 14 14 15 15
2 13 20 24 28 30 32 34 36 39 41 43 45 46 46 47 47 47 46 45 44 43 41 40 39 37 36 34 33 33 32 32 32 32 33 32 31 30 29 29 28 26 25 24 23 22 21 20 18 16 15 14 14 13 13 14 15 15 15 14 14 13 13 13 13 12 12 12 12 11 11 10 11 14 15 16 17 17 17 17 16 16 16 16 16
22 11 8 12 18 22 25 28 32 35 37 40 42 43 44 46 46 46 46 46 45 44 42 41 40 39 37 36 35 34 33 33 33 33 33 34 33 32 31 31 30 28 27 26 25 24 23 22 21 19 18 17 16 15 15 15 15 15 16 16 15 15 15 14 14 13 13 13 13 13 12 11 12 13 15 16 17 18 19 19 18 18 17 16 15
31 24 16 11 12 15 18 22 27 31 34 37 40 41 42 43 44 45 46 46 45 44 43 43 42 41 39 38 37 36 35 34 34 34 34 34 34 34 34 33 32 32 31 29 28 27 26 25 24 23 22 21 19 17 17 16 16 16 16 17 17 17 17 16 15 14 13 14 14 14 13 12 13 14 14 14 15 16 17 18 18 18 17 16 15
35 31 26 19 14 11 11 15 21 25 29 33 37 40 41 42 43 44 45 45 45 45 44 44 43 42 42 41 40 38 37 36 35 34 34 34 35 35 35 35 34 34 34 32 31 30 29 28 28 27 26 25 23 21 20 18 18 17 17 17 18 18 18 18 17 16 15 15 15 14 13 13 14 15 14 14 14 15 15 16 17 16 16 16 15
40 36 32 27 22 17 12 10 12 18 22 25 30 36 40 42 43 44 45 46 46 45 45 44 44 44 43 43 41 40 39 38 36 35 34 34 34 35 36 36 36 36 35 34 34 33 32 31 31 30 29 28 27 25 24 22 20 19 19 18 19 19 20 20 19 18 18 17 16 16 15 14 15 15 15 15 15 15 15 15 15 15 15 16 16
43 40 36 33 29 23 18 13 9 10 14 18 22 28 34 39 42 43 43 44 45 45 45 44 44 44 44 43 42 41 40 39 37 35 34 34 34 35 35 36 37 37 37 37 36 35 35 34 33 32 32 31 30 29 28 26 23 22 21 20 19 20 20 21 21 20 20 19 19 18 17 16 16 16 16 16 15 16 16 16 16 15 15 15 16
42 42 39 37 35 30 24 18 12 8 9 13 17 23 28 33 37 40 41 42 42 43 44 44 44 44 44 43 42 42 41 39 38 36 35 34 33 33 33 34 35 37 38 38 38 37 37 36 35 35 34 33 33 32 31 29 27 24 23 22 21 21 21 22 23 23 22 21 21 20 19 18 18 17 17 17 16 17 17 17 16 16 16 16 17
38 39 39 38 37 34 31 25 18 12 7 7 11 17 23 27 31 34 37 40 41 41 42 43 43 44 44 43 42 41 40 39 38 37 36 35 34 33 32 32 33 35 36 37 38 38 39 39 38 38 37 36 36 35 32 30 29 27 25 24 24 23 22 22 23 24 24 24 23 22 21 20 19 19 18 18 18 18 18 18 17 17 17 17 18
33 33 34 34 34 34 33 30 25 19 13 7 4 7 13 20 26 29 32 36 39 41 41 42 43 44 43 42 41 41 40 39 39 39 37 36 35 34 34 33 32 32 33 34 36 37 38 39 39 39 39 39 38 37 34 32 31 29 28 27 26 25 24 24 24 24 25 25 24 24 23 22 22 21 21 20 20 19 19 19 18 18 18 19 19
31 30 29 29 31 32 33 32 30 27 22 15 9 4 3 11 19 25 28 32 36 39 41 41 42 42 41 41 41 41 41 40 39 38 38 37 36 35 35 34 34 33 32 32 33 34 35 37 37 38 38 38 38 37 36 34 33 32 31 30 29 28 26 26 25 25 25 26 26 25 25 24 24 23 23 22 22 21 21 20 20 20 20 20 21
30 29 28 27 27 28 29 30 30 29 26 22 18 13 7 4 10 18 25 29 33 36 38 40 40 40 40 40 39 39 41 42 41 38 36 35 35 36 35 35 34 33 32 32 32 32 32 33 34 35 36 37 37 37 36 36 35 34 33 32 31 29 28 27 27 26 26 26 26 26 26 25 25 24 24 23 23 23 22 22 22 22 22 22 22
29 29 28 26 26 25 24 24 26 27 26 25 24 20 15 11 6 10 19 25 30 33 36 38 39 39 40 40 38 36 37 41 44 43 39 34 33 34 34 34 33 32 32 32 32 31 31 31 32 32 33 34 35 35 35 35 35 34 33 32 31 30 29 28 28 27 27 27 27 27 27 27 26 25 25 24 24 24 24 23 23 23 23 24 24
27 27 27 26 25 24 22 20 20 22 23 23 23 22 18 16 12 2 14 24 28 31 34 37 38 38 40 41 39 37 36 37 40 43 44 41 38 34 32 32 32 32 33 33 32 32 31 31 31 32 32 33 34 35 35 35 34 33 32 32 31 31 30 29 28 28 28 27 27 28 28 28 27 27 27 26 25 25 25 25 24 24 24 24 24
26 26 26 25 25 24 23 21 19 20 21 21 22 22 20 19 17 8 7 18 26 30 32 35 37 38 38 39 40 40 39 38 39 41 43 44 43 40 35 32 31 32 32 33 33 34 33 32 31 31 32 33 33 34 34 34 34 32 32 31 31 31 31 30 29 28 28 28 27 27 28 28 28 28 28 27 27 27 26 26 26 26 25 25 25
24 25 24 24 24 23 22 22 21 22 22 21 21 21 21 21 17 11 7 9 18 26 29 31 34 36 36 36 38 41 42 42 42 42 43 43 43 43 40 37 34 32 31 31 33 34 34 34 33 32 33 33 32 32 32 33 32 32 31 31 31 31 31 31 30 29 28 28 28 28 28 28 29 29 28 28 27 27 28 28 28 28 27 26 26
23 23 23 22 21 21 20 19 20 22 23 22 21 19 18 18 16 12 9 8 9 16 21 26 30 33 33 34 36 40 42 42 43 44 44 42 41 41 41 40 38 36 33 32 31 32 33 33 34 34 34 33 31 30 31 31 31 31 31 31 31 32 32 32 30 29 28 29 28 28 28 28 29 29 28 27 27 27 28 29 29 29 28 28 28
22 23 23 22 21 19 19 18 18 19 21 22 21 19 17 15 14 13 11 9 9 8 10 19 25 28 31 33 36 39 39 40 41 43 44 43 41 40 40 40 40 39 36 33 32 32 32 33 33 33 33 33 31 29 29 30 31 31 31 32 32 32 32 32 31 30 29 29 29 29 28 28 29 29 28 27 26 27 28 29 29 29 29 31 30
23 23 24 24 23 20 18 17 17 17 19 21 22 21 19 16 14 14 12 10 10 9 6 11 17 21 25 28 32 34 35 35 37 39 40 41 41 39 38 38 39 40 39 37 36 35 35 34 34 33 33 33 32 29 28 29 30 31 32 32 32 33 33 33 32 31 30 30 29 29 29 29 29 29 27 27 26 27 28 29 29 29 31 33 32
25 24 24 24 24 23 20 17 17 18 18 20 21 22 22 21 18 15 14 12 10 9 9 10 12 14 17 21 24 27 29 30 32 34 36 38 38 38 37 37 38 39 39 40 39 38 38 36 35 35 34 34 33 30 29 28 29 30 32 33 33 34 34 33 32 32 31 31 30 29 29 29 29 28 27 27 27 28 29 29 29 30 32 33 32
26 26 26 25 24 24 23 19 16 16 17 18 20 21 22 22 20 18 17 16 13 10 9 11 13 14 15 16 18 20 21 23 26 28 30 32 34 36 36 36 36 38 39 40 40 40 39 38 36 36 36 35 34 32 29 28 28 29 31 32 34 35 34 33 32 32 32 32 31 29 28 28 28 28 27 26 26 27 28 29 30 31 32 31 29
26 25 25 26 26 26 25 23 18 15 15 17 19 19 20 22 21 19 19 19 18 16 13 11 13 16 18 16 15 16 17 18 19 21 22 25 27 28 30 32 34 36 39 40 41 41 41 39 38 37 36 36 34 33 31 29 28 28 29 31 33 34 33 32 33 33 33 32 30 29 28 27 27 28 27 25 25 25 25 27 28 28 28 28 27
28 27 26 27 29 28 27 26 23 18 15 16 18 19 19 20 21 20 20 21 21 20 17 15 13 13 16 18 18 19 17 13 12 15 18 21 21 22 24 27 29 33 36 39 40 41 42 41 40 39 38 36 35 34 33 31 30 29 28 29 31 32 32 32 33 34 33 31 30 28 27 26 26 26 26 25 24 24 24 25 25 24 23 23 23
29 29 28 28 29 29 28 27 26 23 18 15 16 19 20 19 20 21 21 21 22 23 21 19 16 14 13 13 15 18 15 9 9 13 15 16 18 20 22 23 25 28 32 37 39 41 42 43 41 40 38 37 35 34 33 31 31 30 29 27 28 29 30 31 32 33 32 31 30 29 27 26 26 26 25 24 24 23 23 24 23 21 20 20 21
30 30 29 29 29 29 29 28 28 26 22 17 15 18 19 19 20 21 22 22 23 24 24 23 20 18 16 13 10 10 10 9 13 18 17 15 17 18 21 23 24 25 29 34 38 41 42 43 42 41 39 38 36 35 33 31 30 30 29 28 26 26 27 29 31 32 32 31 29 28 26 26 26 26 25 24 25 25 24 24 24 22 21 21 23
30 30 30 30 30 30 30 30 28 27 25 21 17 17 18 19 20 21 23 24 23 24 25 25 23 21 19 17 11 8 9 12 16 21 22 20 18 18 20 22 24 25 28 32 37 41 42 42 42 41 39 38 37 35 34 32 30 30 30 29 27 26 26 27 29 31 31 31 29 28 27 27 27 27 26 26 27 26 26 26 25 25 24 25 25
30 30 29 29 30 31 31 31 30 28 27 25 22 19 18 17 18 21 23 24 24 24 24 26 26 24 22 20 16 11 10 13 16 20 22 22 20 20 21 23 24 26 28 31 35 40 43 43 42 40 38 37 37 36 35 33 32 32 31 30 29 28 27 27 28 29 30 31 30 29 28 29 30 29 29 30 30 29 29 29 29 29 29 28 28
30 29 28 28 29 30 31 32 31 31 30 29 26 23 20 17 17 20 22 23 24 24 25 26 26 26 24 22 19 15 12 11 13 17 20 20 20 21 23 25 26 28 30 32 34 39 42 42 40 39 38 36 35 35 35 34 33 32 30 28 27 27 27 27 27 28 29 30 29 29 31 33 33 33 32 32 32 32 32 32 31 31 31 30 30
30 29 28 28 28 29 31 32 32 33 34 32 28 26 24 20 17 19 22 23 24 23 24 25 26 26 25 23 21 17 14 12 12 15 19 20 21 22 25 28 30 32 34 34 35 38 40 39 38 38 38 37 36 33 30 29 29 29 27 25 24 24 24 24 23 24 26 29 30 31 34 36 37 36 35 34 34 33 33 33 33 33 32 32 32
30 29 29 29 29 28 30 32 32 33 35 34 31 28 26 23 20 19 21 23 23 24 24 24 25 26 26 24 22 19 17 15 14 15 18 21 22 22 24 28 32 34 35 35 35 38 38 38 37 37 35 35 33 28 24 23 26 27 27 25 24 23 22 22 22 23 27 30 31 33 36 38 38 38 37 36 36 35 34 34 34 34 33 33 34
31 31 31 31 30 28 29 31 32 34 35 35 33 31 27 24 22 21 23 23 23 24 24 23 23 24 25 25 24 21 19 17 16 16 18 20 22 22 23 27 30 32 33 35 38 40 40 40 40 39 36 34 32 29 26 26 27 28 28 26 24 23 23 22 22 25 28 30 31 34 37 39 39 39 38 36 36 36 35 35 34 34 34 34 35
Wind_Direction
206 206 208 211 214 215 215 214 213 213 212 212 212 212 210 209 208 206 203 203 204 203 198 195 193 194 199 204 207 208 209 211 205 197 197 194 195 203 210 217 224 221 209 202 200 201 204 205 206 212 218 215 208 202 199 196 195 194 192 192 191 191 192 176 159 96 12 14 16 17 31 79 99 96 88 81 77 70 62 53 47 41 33 26 22
205 206 208 210 213 214 216 216 215 215 213 212 212 213 213 212 212 210 205 204 206 206 202 198 196 198 201 205 207 209 210 211 206 198 196 197 198 200 201 210 214 210 205 201 204 208 210 210 209 213 214 212 207 204 204 204 203 198 194 196 199 200 204 205 217 289 325 351 4 8 28 113 108 96 90 84 77 61 57 59 55 46 40 35 33
203 206 207 208 211 212 215 217 216 216 216 216 214 214 215 214 214 213 209 207 208 208 206 202 201 202 204 207 208 210 212 210 203 195 194 197 196 191 194 202 206 203 202 201 205 213 219 221 216 214 215 214 211 209 211 212 209 201 196 199 203 206 213 214 229 273 300 353 3 6 26 84 86 81 71 69 66 51 48 56 59 51 46 45 45
202 205 207 207 209 210 213 216 217 216 218 219 216 214 215 215 216 216 212 210 210 209 208 205 202 204 206 207 209 212 212 209 202 196 195 194 190 186 189 196 198 198 201 205 208 214 221 220 212 209 212 215 215 214 214 213 207 199 197 201 205 209 212 209 218 241 214 6 357 359 14 37 40 27 26 53 53 41 38 42 48 42 31 32 36
202 204 206 206 207 209 212 216 216 216 218 220 219 216 215 216 218 218 214 212 213 212 209 205 202 205 206 204 206 210 211 210 205 200 196 194 189 186 190 195 197 196 199 205 211 216 217 214 210 208 210 212 213 214 212 208 203 198 198 203 207 209 208 206 205 195 165 357 349 3 24 28 18 5 6 30 32 29 30 28 33 27 10 7 12
207 206 207 207 207 208 211 214 215 216 219 221 222 220 217 218 219 219 216 213 214 214 210 206 203 205 206 205 205 208 211 211 207 203 198 194 191 192 200 203 203 200 198 203 210 217 215 213 214 210 210 211 208 209 207 204 202 200 202 207 211 211 211 212 211 205 226 298 327 8 25 14 5 359 359 359 7 28 25 13 20 20 3 356 356
210 209 209 208 207 208 209 212 214 216 220 223 224 222 220 220 220 219 216 214 214 215 212 208 206 207 208 210 210 212 214 213 209 205 202 200 200 204 211 214 213 207 201 202 207 213 214 212 211 206 205 207 208 207 204 204 203 202 205 210 215 216 218 224 229 236 251 268 272 258 309 342 350 352 350 345 346 9 16 9 15 16 3 357 357
211 210 210 211 210 210 210 211 215 218 221 223 224 224 222 221 221 220 218 216 215 216 215 211 209 210 212 213 215 217 218 216 213 209 206 210 212 212 215 219 220 212 204 204 207 212 215 212 209 205 203 207 210 209 208 208 206 207 209 212 218 220 224 232 235 244 252 248 260 272 285 316 341 346 344 339 335 344 360 6 9 9 6 4 10
213 212 212 213 213 213 212 213 216 218 221 224 225 225 224 223 222 222 220 217 216 217 217 215 213 214 215 216 217 219 220 219 216 213 211 214 216 214 213 217 220 214 207 205 206 211 216 216 215 209 207 212 212 208 209 211 209 212 214 216 221 223 230 235 232 237 243 240 257 273 275 295 328 338 338 339 336 337 345 353 359 4 9 8 10
214 215 214 215 215 215 215 215 217 219 221 224 226 227 226 224 222 222 221 218 217 217 218 218 216 215 216 217 218 219 220 218 217 216 213 214 215 212 210 213 217 213 209 207 207 211 215 219 221 216 213 214 210 203 205 212 215 218 218 219 222 225 231 233 227 229 233 233 247 257 259 284 313 328 335 335 333 331 334 343 355 1 8 13 14
214 215 216 217 217 217 215 215 217 218 221 223 225 226 226 225 223 222 221 219 218 217 218 218 218 217 216 218 220 220 220 220 218 215 213 213 212 210 208 210 215 215 212 211 211 213 216 221 224 222 219 215 210 205 203 211 221 227 226 221 220 222 226 227 224 225 228 232 244 246 249 274 298 321 337 326 321 324 328 338 349 352 357 2 9
213 214 216 216 216 215 214 215 216 217 218 221 223 225 226 225 224 223 221 220 219 218 219 219 219 220 219 219 221 222 222 223 221 218 215 213 211 210 210 210 213 215 214 214 214 216 219 221 223 223 222 220 215 212 209 212 221 227 229 224 221 223 224 225 226 226 229 238 248 243 242 261 278 300 310 302 309 318 325 340 348 346 346 346 349
212 212 214 214 214 214 214 214 214 216 217 220 223 224 225 225 225 224 222 221 220 220 220 220 220 221 221 221 222 223 225 225 226 223 219 216 214 211 212 212 213 214 215 216 215 218 221 222 223 224 225 225 221 216 213 214 219 225 227 226 224 225 227 228 229 230 232 238 243 237 237 255 266 270 273 280 298 309 321 341 347 345 344 341 337
211 212 212 213 214 214 214 214 214 216 218 220 222 223 225 225 225 225 224 223 222 221 222 222 223 223 223 223 224 224 226 227 228 227 223 220 217 215 216 216 216 216 217 218 218 221 224 224 225 225 226 228 226 219 215 215 219 223 227 229 227 227 229 232 233 231 230 233 235 232 237 252 259 258 262 274 290 303 315 327 331 334 337 338 337
212 213 213 213 214 215 214 214 214 216 218 219 221 223 224 225 225 225 224 223 223 223 223 224 225 225 225 225 226 226 227 228 230 230 228 225 222 221 221 221 220 220 219 220 222 224 226 227 228 226 225 226 226 223 220 219 221 222 226 228 226 228 232 235 236 231 228 232 234 233 238 251 259 259 262 272 285 298 310 317 319 326 330 334 337
212 212 213 214 214 215 215 214 215 216 217 219 221 222 223 225 226 226 226 225 224 224 225 226 227 227 227 227 227 227 228 229 230 231 230 228 227 226 225 224 225 224 223 222 223 225 227 228 230 230 228 227 227 225 224 225 225 226 230 230 226 229 236 239 240 236 231 234 236 237 240 250 260 262 262 270 281 293 307 314 315 321 327 331 334
213 213 213 213 212 213 215 215 215 216 217 219 221 223 224 225 226 226 226 226 226 226 226 227 228 229 229 228 228 228 228 228 229 230 230 229 230 229 227 227 227 226 226 225 226 228 229 230 232 233 233 231 229 228 228 231 232 232 235 237 232 230 235 239 242 246 244 240 241 244 246 251 256 256 258 264 274 285 299 312 314 317 324 329 332
213 215 214 214 212 213 214 215 216 217 219 220 222 223 225 226 228 228 227 227 227 227 228 228 229 230 231 230 228 228 228 228 229 230 231 231 231 231 229 227 226 226 227 228 229 229 229 231 232 233 235 236 235 233 233 236 239 239 240 242 240 237 237 238 241 247 250 249 250 250 251 252 249 247 248 254 264 273 281 295 304 309 318 323 329
212 214 214 214 213 213 214 215 216 218 220 221 222 222 223 225 227 229 229 230 230 230 230 230 231 232 233 233 231 229 228 228 229 230 232 232 232 232 231 228 227 228 229 230 231 229 228 228 229 232 235 238 240 240 239 240 243 244 245 245 244 243 243 241 241 246 248 251 253 254 254 249 242 240 242 247 257 266 272 282 290 297 308 314 321
216 215 215 215 215 214 215 215 216 217 218 220 220 220 222 224 226 228 229 230 231 231 231 230 231 232 234 235 234 232 230 229 229 230 232 232 233 234 234 232 231 231 232 233 234 232 229 227 227 230 234 239 244 247 248 248 248 248 249 248 247 246 246 243 242 245 247 249 250 252 253 248 240 239 241 245 253 263 270 278 284 291 301 308 315
221 220 218 218 218 217 217 217 217 217 217 217 218 220 222 223 225 227 228 229 230 231 231 231 232 233 234 236 236 235 234 232 231 231 232 233 233 234 235 235 235 235 235 235 235 234 232 230 230 232 236 241 246 250 254 255 255 254 253 252 251 248 246 244 242 243 246 249 250 250 251 249 244 241 241 245 251 261 269 275 281 288 297 305 310
127 215 218 221 221 220 220 219 218 218 217 216 217 218 220 222 224 226 227 229 231 232 232 232 233 234 235 237 238 238 237 236 234 233 233 234 234 235 235 236 238 239 239 238 236 235 235 235 236 239 244 246 248 251 254 257 259 259 258 257 255 253 250 247 245 244 245 248 251 251 248 247 247 245 244 247 251 258 266 273 279 285 294 301 305
59 85 161 200 213 218 221 222 221 219 218 218 218 218 219 222 224 226 227 230 232 233 234 233 234 235 237 238 239 239 239 239 237 236 235 235 236 237 237 238 239 240 241 241 239 239 239 240 242 247 251 253 254 254 255 257 261 262 262 260 259 258 257 253 251 249 248 248 250 250 248 247 249 249 249 251 255 257 261 267 274 280 288 294 297
54 65 83 120 165 193 208 217 221 221 221 220 219 220 220 222 224 225 228 231 232 233 234 234 234 236 237 238 239 240 240 241 240 239 237 237 237 238 239 240 241 242 242 242 242 243 244 244 247 250 254 258 259 260 259 259 260 263 264 263 261 259 259 259 257 256 255 254 254 253 251 249 251 252 253 254 258 260 262 266 271 276 282 286 288
48 53 61 78 103 132 168 194 208 215 220 221 220 223 224 224 225 227 229 231 232 233 233 234 234 236 237 238 240 240 241 242 243 242 240 239 239 239 241 242 243 244 245 245 245 246 246 247 249 252 256 260 263 265 265 263 262 264 266 265 263 261 260 260 261 259 259 260 260 259 257 254 253 253 253 255 258 262 265 268 271 274 278 281 284
45 48 51 56 63 75 98 139 179 197 209 215 217 223 228 228 227 229 230 231 231 232 233 233 234 235 237 239 240 241 242 243 244 245 245 244 242 242 242 243 245 246 248 249 248 249 249 250 252 254 257 260 263 266 267 267 265 264 265 266 265 263 260 260 260 261 260 260 260 261 260 258 256 254 254 255 256 260 263 267 270 273 276 279 282
44 46 48 48 50 54 64 79 114 163 189 200 205 215 226 230 229 229 230 230 231 231 231 233 234 236 237 239 241 242 244 245 246 248 249 249 248 247 246 246 247 248 249 251 252 252 253 253 254 256 258 260 263 265 267 267 266 264 265 266 267 266 263 260 259 260 260 260 260 260 259 258 257 256 256 255 256 259 262 264 266 268 271 274 277
42 43 44 44 44 44 47 55 70 103 151 179 189 200 214 224 228 230 230 230 230 230 231 232 234 236 238 240 242 244 245 246 248 249 250 251 251 251 251 250 250 249 250 251 253 254 256 257 258 258 259 261 262 263 264 264 263 262 263 264 267 268 267 264 261 259 258 259 259 258 257 256 256 257 258 258 258 259 261 263 264 266 268 270 272
37 39 39 39 40 39 39 41 46 61 96 146 174 192 203 213 220 226 230 231 231 230 232 233 234 237 240 242 243 244 245 247 248 249 250 251 251 251 251 251 251 251 251 251 252 254 256 257 259 260 262 262 263 263 263 262 261 260 260 262 265 268 269 267 265 261 258 258 257 257 256 255 255 256 258 259 259 260 261 263 263 265 267 269 271
31 34 35 36 36 35 35 35 36 39 43 59 115 180 198 207 212 216 223 229 232 232 233 234 236 238 241 242 243 244 246 247 247 249 250 251 251 251 251 251 251 251 251 251 252 253 254 255 257 260 261 263 264 264 263 261 260 260 261 262 263 265 267 267 265 263 260 258 257 257 256 256 257 257 258 259 259 260 261 263 265 267 268 270 273
25 27 29 32 34 33 31 30 30 29 28 27 28 24 214 209 209 209 213 220 228 233 235 236 238 240 241 242 243 245 245 246 248 249 250 251 252 252 252 252 253 253 253 253 253 253 253 254 255 257 259 261 262 263 263 262 261 261 262 263 263 264 264 264 263 262 260 257 256 256 256 256 257 258 258 258 258 259 259 261 264 266 268 270 273
21 21 22 25 29 30 28 26 25 25 23 19 15 7 346 279 221 209 208 212 219 228 235 237 238 239 240 240 242 245 247 248 248 248 248 250 251 252 252 253 253 253 254 254 254 254 254 254 255 256 257 258 259 260 261 262 262 261 262 263 263 263 263 262 261 259 258 257 255 254 254 254 255 256 258 258 258 258 257 258 259 261 263 266 269
17 17 17 18 21 24 25 20 17 19 22 20 15 9 358 344 303 219 207 210 214 221 229 236 240 241 241 240 241 243 247 249 249 248 248 247 248 248 250 251 252 253 254 254 255 255 255 255 255 255 255 256 257 257 258 260 260 261 261 262 263 262 261 261 260 258 257 255 254 253 253 252 252 253 255 257 258 258 258 258 258 258 260 262 264
13 13 13 12 12 16 19 16 8 9 15 19 19 15 5 356 354 286 205 207 209 213 219 227 234 240 242 242 243 243 245 247 249 250 249 247 246 246 247 248 249 251 253 254 254 254 254 254 254 254 254 254 254 254 255 257 258 259 260 261 261 262 261 260 259 257 256 254 253 253 252 251 251 252 253 254 256 257 259 259 259 259 259 260 262
5 6 7 7 6 6 10 11 5 1 5 11 17 17 10 1 360 353 232 216 211 211 213 219 226 232 235 239 243 245 244 245 247 248 248 248 248 248 249 248 248 249 251 254 255 256 255 255 255 255 255 254 252 252 253 254 256 257 258 259 260 261 261 260 258 256 255 254 253 252 252 252 251 252 253 254 255 256 257 258 259 258 259 259 259
359 359 359 2 3 1 1 3 0 357 358 1 7 12 10 5 360 350 324 266 230 220 218 219 223 228 232 236 240 242 244 246 246 245 246 248 250 250 250 250 250 250 252 254 256 258 258 257 257 256 257 257 253 250 250 251 253 254 255 257 258 259 260 259 258 256 255 254 254 253 252 252 251 252 252 253 254 256 257 258 258 257 258 258 257
353 353 353 354 357 357 357 357 356 354 352 353 358 5 9 11 5 354 349 328 271 239 227 226 228 231 237 242 244 244 245 246 246 245 246 248 249 249 250 251 252 252 253 254 256 258 259 259 259 259 258 258 256 252 249 249 249 250 252 253 255 256 257 258 257 256 256 255 254 254 254 253 253 252 252 253 254 256 256 257 257 258 258 258 256
343 345 345 347 348 350 354 354 352 351 349 347 350 357 5 13 11 1 355 339 314 286 238 230 233 236 242 246 247 248 249 250 248 246 246 247 247 247 249 251 252 254 255 256 258 259 260 260 261 261 260 260 259 256 253 250 247 247 249 250 252 253 255 257 257 257 257 256 255 254 254 254 254 253 253 253 253 255 256 256 257 258 260 259 256
334 335 337 339 340 341 347 349 348 348 347 344 343 345 351 1 10 9 0 337 313 307 279 244 236 235 241 246 246 246 248 250 250 249 248 248 248 248 249 250 253 255 256 258 259 259 261 261 262 262 262 261 260 259 256 252 248 246 247 248 250 251 253 254 256 256 256 256 255 254 254 254 253 253 252 252 252 254 256 256 258 260 261 259 257
328 328 328 330 332 335 338 344 347 346 344 342 337 335 339 346 355 358 352 340 320 300 291 277 256 241 237 240 243 245 245 245 246 247 248 249 249 249 249 250 252 255 256 258 259 259 261 262 261 261 261 260 259 258 256 253 249 246 245 246 248 250 251 252 253 255 256 256 256 255 254 253 253 253 252 250 251 253 255 257 259 260 260 259 260
320 322 323 322 323 328 331 334 340 341 340 338 335 331 331 335 341 341 334 332 330 316 297 284 270 261 252 241 238 244 246 244 242 243 245 247 248 248 249 250 252 254 255 256 258 259 260 261 260 260 259 258 257 255 254 254 252 248 245 246 247 248 249 250 253 254 256 257 257 256 254 252 252 252 252 251 251 252 255 258 259 259 260 262 263
313 316 320 320 317 319 322 324 328 332 334 336 334 330 328 329 333 333 325 322 324 322 315 303 283 274 274 266 250 243 246 247 242 238 238 240 241 242 245 248 251 253 254 256 258 258 258 259 258 258 257 256 255 253 252 252 252 251 248 247 247 247 248 250 253 254 255 256 256 255 253 251 251 252 252 252 252 254 257 259 260 260 262 265 266
310 311 316 318 315 312 313 315 318 321 325 331 332 329 326 325 326 326 321 317 317 316 315 314 306 289 281 277 268 263 264 262 245 235 234 234 232 232 236 242 247 251 253 255 256 256 256 256 256 256 255 254 253 252 251 251 251 252 251 249 248 247 248 250 252 254 254 255 256 255 253 251 251 252 253 252 253 256 259 260 262 264 267 268 268
305 306 310 313 311 308 305 305 309 313 317 321 325 325 323 322 322 321 317 313 311 311 311 313 312 305 295 288 277 275 283 284 252 245 246 241 236 233 233 235 241 247 252 254 255 254 254 253 253 253 252 251 250 250 251 251 251 252 252 250 249 248 248 249 251 253 254 255 256 255 254 253 252 253 254 254 256 259 260 260 262 266 267 266 265
302 301 304 307 305 303 300 297 298 304 309 311 314 318 319 319 319 317 315 313 310 306 306 309 311 308 305 305 291 277 286 281 255 251 252 248 245 242 237 235 236 241 248 253 254 253 252 252 252 251 250 249 249 250 250 251 251 251 251 250 249 249 250 251 251 253 254 255 256 257 258 258 256 255 256 256 257 258 259 259 261 263 262 260 260
300 300 301 301 299 297 295 292 290 294 300 304 304 306 310 316 319 316 313 313 312 306 303 305 309 309 308 308 303 281 269 261 249 246 247 246 244 244 243 241 241 242 247 252 253 253 252 251 251 251 250 249 249 250 250 251 251 251 250 250 250 250 251 252 253 254 255 256 258 259 259 259 258 257 257 257 256 257 257 258 259 259 257 256 257
298 299 300 299 296 292 291 290 286 285 291 297 298 298 301 308 317 317 313 311 310 308 305 303 305 308 308 307 307 297 274 258 247 244 248 249 245 243 243 241 241 244 248 250 251 251 250 249 249 249 248 248 249 249 249 249 249 249 249 250 251 251 251 251 252 252 252 253 254 255 256 257 258 259 258 257 256 256 256 255 255 255 255 255 256
296 296 297 296 294 289 287 286 283 281 285 290 292 294 296 300 310 315 313 309 308 308 305 303 303 305 306 306 307 302 289 273 255 247 248 249 246 244 245 246 247 249 251 251 250 249 247 246 245 245 245 245 246 246 246 247 248 250 251 252 252 252 251 251 252 252 252 252 253 253 253 254 255 255 255 256 256 256 255 256 256 256 256 257 258
294 294 293 292 291 286 282 280 279 279 282 284 287 290 292 294 303 312 311 308 306 305 302 301 301 303 304 305 306 303 297 288 270 253 248 247 245 246 249 252 253 253 251 251 251 250 249 247 245 244 243 243 243 244 246 248 252 255 256 256 256 256 257 257 259 261 259 256 254 252 252 252 252 252 252 253 254 255 256 257 258 259 259 259 259
292 291 290 288 287 285 281 276 274 275 278 280 281 285 288 289 295 305 309 306 303 301 299 299 301 301 302 303 304 303 297 287 273 258 251 247 243 242 244 245 245 243 242 243 246 248 251 252 251 249 248 247 248 251 255 258 260 261 261 261 262 263 264 266 268 266 261 256 254 252 251 251 252 252 252 253 254 255 257 258 260 261 261 261 261
289 288 287 286 284 283 280 274 270 271 274 276 277 279 281 284 289 298 304 303 300 297 295 295 299 300 300 300 302 303 298 286 270 259 254 250 244 240 239 241 241 240 237 237 240 244 248 251 253 254 254 255 256 259 261 263 263 264 263 264 264 265 265 266 267 265 260 256 254 253 252 252 252 252 253 255 256 258 259 260 261 262 262 262 261